Location: G�migny
(47.9646°N, 1.6950°E)
Time: 00:17:05
(UTC+00:00)

YAOGAN 6 - Pass Details

Date: 23 January 2020
Orbit: 465 x 505 km, 97.0° (Epoch: 24 February)

Event Time Altitude Azimuth Distance (km) Brightness Sun altitude
Rises 17:07:29 0° 142° (SE) 2,593 6.1 -5.2°
Reaches altitude 10° 17:09:43 10° 132° (SE) 1,709 5.1 -5.5°
Maximum altitude 17:12:58 30° 70° (ENE) 911 3.4 -6.0°
Drops below altitude 10° 17:16:14 10° 7° (N) 1,706 5.0 -6.5°
Sets 17:18:27 0° 357° (N) 2,587 6.1 -6.9°
